• In Netherlands
  • List of Countries
  • For 7 days
  • Water Temperature
  • Satellite Maps
  • Weather Map
  • Weather Widgets
  • user-avatar
    Login

    Hourly Weather San Juan

    Today, 15 December, Friday

    Time Temperature Precipitation Wind Pressure Humidity
    00:00 +30°C° 0 mm 3 mps 704 mmHg 33%
    01:00 +29°C° 0 mm 3 mps 704 mmHg 36%
    02:00 +29°C° 0 mm 3 mps 704 mmHg 37%
    03:00 +28°C° 0 mm 2 mps 704 mmHg 39%
    04:00 +28°C° 0 mm 2 mps 703 mmHg 40%
    05:00 +29°C° 0 mm 2 mps 704 mmHg 37%
    06:00 +30°C° 0 mm 2 mps 704 mmHg 34%
    07:00 +31°C° 0 mm 2 mps 704 mmHg 30%
    08:00 +32°C° 0 mm 2 mps 704 mmHg 28%
    09:00 +34°C° 0 mm 2 mps 703 mmHg 27%
    10:00 +35°C° 0 mm 2 mps 703 mmHg 25%
    11:00 +36°C° 0 mm 2 mps 702 mmHg 23%
    12:00 +37°C° 0 mm 2 mps 702 mmHg 21%
    13:00 +38°C° 0 mm 2 mps 701 mmHg 20%
    14:00 +39°C° 0 mm 2 mps 701 mmHg 19%
    15:00 +39°C° 0 mm 2 mps 700 mmHg 19%
    16:00 +39°C° 0 mm 2 mps 700 mmHg 18%
    17:00 +38°C° 0.1 mm 2 mps 700 mmHg 19%
    18:00 +38°C° 0.1 mm 2 mps 700 mmHg 21%
    19:00 +37°C° 0.1 mm 2 mps 700 mmHg 22%
    20:00 +36°C° 0 mm 3 mps 700 mmHg 25%
    21:00 +35°C° 0 mm 3 mps 701 mmHg 28%
    22:00 +34°C° 0 mm 3 mps 701 mmHg 30%
    23:00 +34°C° 0 mm 3 mps 701 mmHg 35%

    Tomorrow, 16 December, Saturday

    Time Temperature Precipitation Wind Pressure Humidity
    00:00 +33°C° 0 mm 3 mps 700 mmHg 40%
    01:00 +33°C° 0 mm 3 mps 700 mmHg 45%
    02:00 +31°C° 0 mm 3 mps 700 mmHg 45%
    03:00 +31°C° 0 mm 2 mps 699 mmHg 45%
    04:00 +31°C° 0 mm 2 mps 699 mmHg 46%
    05:00 +33°C° 0 mm 3 mps 699 mmHg 40%
    06:00 +34°C° 0 mm 3 mps 699 mmHg 35%
    07:00 +35°C° 0 mm 3 mps 699 mmHg 30%
    08:00 +37°C° 0 mm 4 mps 699 mmHg 27%
    09:00 +38°C° 0 mm 4 mps 698 mmHg 24%
    10:00 +41°C° 0 mm 4 mps 698 mmHg 22%
    11:00 +42°C° 0 mm 4 mps 698 mmHg 18%
    12:00 +43°C° 0 mm 4 mps 697 mmHg 14%
    13:00 +44°C° 0 mm 4 mps 697 mmHg 11%
    14:00 +45°C° 0 mm 4 mps 697 mmHg 10%
    15:00 +45°C° 0 mm 4 mps 696 mmHg 9%
    16:00 +46°C° 0 mm 5 mps 696 mmHg 8%
    17:00 +45°C° 0 mm 5 mps 697 mmHg 9%
    18:00 +42°C° 0 mm 5 mps 698 mmHg 10%
    19:00 +41°C° 0 mm 6 mps 698 mmHg 10%
    20:00 +40°C° 0 mm 6 mps 699 mmHg 10%
    21:00 +39°C° 0 mm 6 mps 700 mmHg 10%
    22:00 +37°C° 0 mm 5 mps 700 mmHg 9%
    23:00 +36°C° 0.2 mm 7 mps 701 mmHg 14%

    Day after tomorrow, 17 December, Sunday

    Time Temperature Precipitation Wind Pressure Humidity
    00:00 +34°C° 0.2 mm 8 mps 701 mmHg 20%
    01:00 +33°C° 0.2 mm 9 mps 702 mmHg 25%
    02:00 +28°C° 0.1 mm 10 mps 703 mmHg 27%
    03:00 +24°C° 0.1 mm 10 mps 705 mmHg 30%
    04:00 +21°C° 0.1 mm 11 mps 706 mmHg 32%
    05:00 +21°C° 0 mm 10 mps 707 mmHg 29%
    06:00 +19°C° 0 mm 9 mps 708 mmHg 26%
    07:00 +20°C° 0 mm 8 mps 709 mmHg 23%
    08:00 +21°C° 0 mm 7 mps 709 mmHg 21%
    09:00 +22°C° 0 mm 6 mps 709 mmHg 19%
    10:00 +23°C° 0 mm 5 mps 709 mmHg 18%
    11:00 +25°C° 0 mm 5 mps 709 mmHg 17%
    12:00 +26°C° 0 mm 4 mps 708 mmHg 16%
    13:00 +27°C° 0 mm 4 mps 707 mmHg 15%
    14:00 +28°C° 0 mm 4 mps 707 mmHg 15%
    15:00 +28°C° 0 mm 3 mps 706 mmHg 15%
    16:00 +28°C° 0 mm 3 mps 706 mmHg 14%
    17:00 +28°C° 0 mm 3 mps 706 mmHg 15%
    18:00 +27°C° 0 mm 3 mps 707 mmHg 15%
    19:00 +27°C° 0 mm 3 mps 707 mmHg 16%
    20:00 +26°C° 0 mm 2 mps 708 mmHg 16%
    21:00 +26°C° 0 mm 2 mps 708 mmHg 17%
    22:00 +25°C° 0 mm 2 mps 708 mmHg 18%
    23:00 +25°C° 0 mm 1 mps 708 mmHg 19%

    18 December, Monday

    Time Temperature Precipitation Wind Pressure Humidity
    00:00 +24°C° 0 mm 1 mps 707 mmHg 20%
    01:00 +24°C° 0 mm 1 mps 706 mmHg 21%
    02:00 +23°C° 0 mm 1 mps 706 mmHg 23%
    03:00 +23°C° 0 mm 2 mps 706 mmHg 25%
    04:00 +23°C° 0 mm 2 mps 705 mmHg 27%
    05:00 +24°C° 0 mm 2 mps 705 mmHg 26%
    06:00 +26°C° 0 mm 3 mps 706 mmHg 25%
    07:00 +27°C° 0 mm 4 mps 706 mmHg 24%
    08:00 +29°C° 0 mm 4 mps 706 mmHg 21%
    09:00 +32°C° 0 mm 4 mps 705 mmHg 19%
    10:00 +33°C° 0 mm 4 mps 705 mmHg 17%
    11:00 +35°C° 0 mm 4 mps 704 mmHg 15%
    12:00 +36°C° 0 mm 4 mps 704 mmHg 14%
    13:00 +37°C° 0 mm 3 mps 703 mmHg 12%
    14:00 +37°C° 0 mm 3 mps 703 mmHg 12%
    15:00 +37°C° 0 mm 3 mps 703 mmHg 12%
    16:00 +37°C° 0 mm 3 mps 702 mmHg 12%
    17:00 +36°C° 0 mm 3 mps 703 mmHg 14%
    18:00 +35°C° 0 mm 3 mps 703 mmHg 16%
    19:00 +34°C° 0 mm 4 mps 704 mmHg 18%
    20:00 +33°C° 0 mm 4 mps 704 mmHg 22%
    21:00 +32°C° 0 mm 4 mps 704 mmHg 26%
    22:00 +30°C° 0 mm 4 mps 705 mmHg 30%
    23:00 +29°C° 0 mm 4 mps 705 mmHg 32%

    19 December, Tuesday

    Time Temperature Precipitation Wind Pressure Humidity
    00:00 +29°C° 0 mm 4 mps 704 mmHg 34%
    01:00 +28°C° 0 mm 3 mps 704 mmHg 35%
    02:00 +28°C° 0 mm 3 mps 704 mmHg 36%
    03:00 +27°C° 0 mm 3 mps 703 mmHg 37%
    04:00 +27°C° 0 mm 2 mps 703 mmHg 38%
    05:00 +28°C° 0 mm 3 mps 704 mmHg 35%
    06:00 +29°C° 0 mm 3 mps 704 mmHg 31%
    07:00 +30°C° 0 mm 3 mps 704 mmHg 28%
    08:00 +31°C° 0 mm 3 mps 704 mmHg 25%
    09:00 +34°C° 0 mm 3 mps 704 mmHg 22%
    10:00 +35°C° 0 mm 2 mps 704 mmHg 19%
    11:00 +36°C° 0 mm 2 mps 703 mmHg 17%
    12:00 +37°C° 0 mm 3 mps 702 mmHg 15%
    13:00 +38°C° 0 mm 3 mps 702 mmHg 13%
    14:00 +39°C° 0 mm 3 mps 702 mmHg 13%
    15:00 +39°C° 0 mm 3 mps 701 mmHg 13%
    16:00 +40°C° 0 mm 4 mps 701 mmHg 13%
    17:00 +38°C° 0 mm 4 mps 702 mmHg 15%
    18:00 +37°C° 0 mm 4 mps 702 mmHg 17%
    19:00 +36°C° 0 mm 4 mps 703 mmHg 19%
    20:00 +35°C° 0.1 mm 4 mps 703 mmHg 24%
    21:00 +34°C° 0.1 mm 4 mps 703 mmHg 29%
    22:00 +33°C° 0.1 mm 5 mps 704 mmHg 34%
    23:00 +32°C° 0.1 mm 4 mps 703 mmHg 40%

    20 December, Wednesday

    Time Temperature Precipitation Wind Pressure Humidity
    00:00 +32°C° 0.1 mm 4 mps 703 mmHg 46%
    01:00 +30°C° 0.1 mm 4 mps 702 mmHg 52%
    02:00 +30°C° 0 mm 4 mps 702 mmHg 52%
    03:00 +29°C° 0 mm 4 mps 702 mmHg 52%
    04:00 +29°C° 0 mm 3 mps 702 mmHg 52%
    05:00 +30°C° 0 mm 3 mps 702 mmHg 48%
    06:00 +31°C° 0 mm 3 mps 702 mmHg 44%
    07:00 +33°C° 0 mm 3 mps 702 mmHg 39%
    08:00 +34°C° 0 mm 3 mps 702 mmHg 35%
    09:00 +36°C° 0 mm 3 mps 701 mmHg 31%
    10:00 +37°C° 0 mm 3 mps 701 mmHg 27%
    11:00 +38°C° 0 mm 3 mps 700 mmHg 24%
    12:00 +40°C° 0 mm 3 mps 700 mmHg 20%
    13:00 +42°C° 0 mm 4 mps 699 mmHg 17%
    14:00 +42°C° 0 mm 4 mps 699 mmHg 16%
    15:00 +42°C° 0 mm 4 mps 698 mmHg 16%
    16:00 +42°C° 0 mm 4 mps 698 mmHg 15%
    17:00 +41°C° 0 mm 4 mps 698 mmHg 17%
    18:00 +39°C° 0 mm 3 mps 699 mmHg 19%
    19:00 +38°C° 0 mm 3 mps 699 mmHg 21%
    20:00 +37°C° 0.1 mm 3 mps 700 mmHg 25%
    21:00 +36°C° 0.1 mm 3 mps 700 mmHg 28%
    22:00 +36°C° 0.1 mm 3 mps 701 mmHg 31%
    23:00 +34°C° 0.1 mm 4 mps 701 mmHg 36%
    Show more